GFSSGP_250_spd_000.txt.gz
Wind_Speed
35 40 40 42 45 49 47 43 45 41 42 43 41 44 43 46 49 49 53 54 56 55 54 55 57 58 60 62 60 56 57 58 52 49 52 59 62 62 65 69 69 60 56 55 59 69 73 74 76
37 40 38 40 50 52 50 45 46 45 44 43 44 44 48 51 51 52 55 57 57 58 60 62 62 64 65 69 61 59 58 52 49 52 56 60 63 66 68 72 69 55 53 55 59 62 75 76 77
43 43 51 55 57 55 48 46 47 47 48 44 44 45 52 57 58 58 61 64 61 63 66 65 67 67 71 68 62 55 47 46 53 60 64 68 72 64 68 69 61 55 53 55 59 60 65 71 76
54 50 53 55 58 59 49 45 48 51 54 50 49 50 57 60 65 62 63 67 66 69 70 68 68 72 67 66 58 46 49 55 60 64 71 74 68 67 64 60 55 54 55 55 59 61 63 64 71
58 54 52 55 61 62 52 47 48 54 56 57 56 57 60 61 64 64 67 69 70 72 72 68 69 68 69 64 52 52 56 61 65 72 72 66 63 59 54 51 49 51 56 59 61 64 65 67 66
62 62 65 60 60 61 56 53 56 56 58 58 59 60 62 65 65 67 70 72 73 72 69 68 69 70 71 59 57 58 63 68 76 72 63 63 56 49 47 48 49 52 55 61 65 67 69 69 69
62 60 61 62 64 65 61 59 62 58 60 59 60 61 63 67 67 70 72 72 71 70 68 73 72 74 70 59 62 65 73 77 73 63 59 53 50 51 48 48 50 51 54 57 62 66 70 71 71
67 62 65 69 69 67 64 67 66 62 63 59 60 63 66 69 70 70 72 69 67 68 71 71 75 68 62 64 70 76 79 74 61 55 56 53 50 48 49 49 51 50 53 54 57 60 63 65 67
64 64 69 74 74 68 67 65 67 66 60 60 64 64 66 71 72 73 71 70 70 68 71 75 70 63 64 70 74 81 71 60 54 52 49 47 47 47 47 49 49 50 51 52 55 60 59 62 66
68 63 70 77 73 69 69 66 67 63 64 67 66 67 67 70 73 71 71 69 67 70 72 69 65 66 70 72 76 62 56 54 52 50 46 42 43 46 47 48 50 51 51 54 56 58 61 64 68
71 61 71 73 75 69 70 67 65 64 67 68 67 71 73 72 67 66 67 65 66 70 74 68 68 70 72 73 64 55 52 50 50 48 45 43 43 44 46 48 50 51 52 53 56 58 59 62 66
73 67 71 74 76 71 70 66 65 67 68 67 70 70 72 68 66 66 65 65 67 73 72 67 68 70 74 60 56 52 49 48 48 48 45 44 46 48 47 47 46 46 46 48 50 51 53 55 59
70 68 70 69 72 73 71 65 65 71 67 65 66 73 68 66 68 65 64 66 68 71 68 63 66 76 62 57 52 50 49 51 49 45 47 47 45 43 42 42 41 40 40 42 42 42 45 48 51
74 72 67 67 69 71 72 67 69 75 69 67 70 68 64 66 67 67 64 66 65 68 62 65 75 64 56 53 51 50 49 48 47 47 45 42 39 40 39 36 35 34 34 36 37 39 42 43 45
77 73 69 67 68 69 76 61 70 71 67 67 68 62 66 67 65 64 64 62 64 62 62 69 68 57 56 54 49 50 47 47 46 43 39 40 39 33 30 30 30 32 34 36 36 39 40 42 42
73 66 64 67 75 74 75 59 74 70 67 67 63 63 67 65 62 62 59 61 61 61 63 71 61 58 59 53 51 47 45 43 41 38 38 35 31 29 29 26 30 34 37 40 44 44 43 40 39
67 68 72 72 78 83 80 58 75 69 63 65 64 65 63 62 61 54 57 58 61 64 70 65 58 61 57 51 46 43 40 38 36 33 28 26 24 24 27 31 35 38 39 40 37 36 36 34 33
78 81 80 77 80 83 72 56 68 66 59 65 64 61 59 60 58 53 54 56 60 64 66 61 59 59 53 48 42 39 36 36 32 28 27 23 23 27 31 35 38 36 34 31 29 29 29 30 30
86 81 75 75 80 81 65 56 61 64 60 62 60 56 57 58 48 51 52 53 60 67 62 58 58 53 47 41 36 35 35 32 27 26 23 23 24 27 34 38 37 32 27 24 22 22 24 24 24
81 79 72 72 78 76 66 60 58 60 58 56 54 55 57 50 48 51 51 55 62 62 57 54 55 47 40 34 35 35 31 25 23 22 19 23 29 35 40 38 32 27 20 16 15 16 16 17 20
77 73 69 70 79 71 61 54 57 59 54 54 53 56 55 46 47 46 51 55 61 57 54 57 50 41 37 34 35 32 25 21 18 17 23 29 35 38 38 34 28 19 13 10 10 11 12 14 17
71 72 72 71 74 62 55 53 55 56 53 51 55 53 46 43 43 48 52 55 56 51 53 57 44 36 33 32 32 25 18 13 18 23 28 31 37 35 33 30 20 9 6 5 6 7 9 12 14
56 70 67 67 63 56 49 51 59 55 52 53 47 45 40 38 41 47 52 52 48 50 54 44 37 33 31 31 25 17 14 12 19 25 28 33 36 32 29 19 6 1 2 3 5 7 14 16 21
54 50 44 42 42 45 49 50 57 50 39 41 39 35 34 37 43 47 49 47 41 48 45 39 32 29 28 26 20 15 12 14 22 29 28 34 33 29 21 7 3 6 6 7 9 12 17 20 22
40 32 23 23 37 44 51 44 47 37 37 34 32 30 33 41 42 42 44 43 45 48 37 34 28 25 25 20 16 12 9 17 25 28 30 34 28 22 9 4 8 11 10 13 15 15 19 22 27
40 37 32 35 43 47 48 21 36 25 30 28 27 33 35 37 33 40 40 38 40 43 37 29 23 21 21 15 12 6 10 20 27 31 33 24 20 13 7 7 12 14 15 16 19 17 21 26 30
43 27 37 37 39 42 19 23 22 30 27 25 25 27 29 26 33 37 35 35 44 36 31 22 18 19 15 12 5 4 12 22 26 34 22 21 17 10 8 11 15 14 15 16 21 22 26 29 33
43 41 35 35 31 17 16 25 32 28 25 25 25 21 22 26 31 31 31 39 32 27 24 18 16 16 12 7 3 7 15 21 28 26 20 23 17 10 10 14 17 13 14 14 20 25 31 33 32
46 36 27 23 20 16 25 33 30 29 26 29 22 19 19 25 25 24 30 25 25 23 21 17 13 13 9 3 6 7 13 20 32 27 21 25 20 15 13 16 16 17 17 19 23 27 35 35 32
50 41 36 26 22 29 34 38 32 33 32 24 17 17 19 20 17 17 19 22 20 20 16 13 11 11 7 2 6 5 14 20 30 30 22 22 26 22 18 15 13 13 17 17 25 30 37 35 37

GFSSGP_250_spd_003.txt.gz
Wind_Speed
43 45 41 40 37 37 37 43 46 44 47 47 49 46 48 47 43 42 45 50 51 51 52 54 55 56 59 60 53 54 57 56 55 53 49 44 44 45 47 48 52 52 55 58 62 62 62 56 56
44 45 43 47 46 47 52 48 48 50 44 50 51 48 52 55 51 51 52 52 52 52 53 56 59 61 62 56 52 56 57 58 54 45 42 41 43 43 47 52 58 60 63 64 64 66 64 59 57
46 43 40 42 43 48 51 49 48 48 47 48 52 51 55 57 56 56 55 54 55 57 58 58 61 62 55 54 55 58 58 61 53 44 45 48 51 51 55 64 63 63 65 66 67 67 62 58 61
49 51 49 51 51 54 56 60 52 51 51 51 52 57 60 63 61 60 60 59 58 59 62 63 62 58 54 57 57 60 62 56 50 46 47 52 58 64 69 67 65 63 63 63 63 59 58 59 61
53 52 53 54 56 56 56 55 55 55 53 52 55 60 61 63 64 60 60 62 62 61 65 68 64 58 59 58 60 65 59 54 48 52 57 60 65 70 71 67 62 61 60 56 52 52 53 57 60
57 55 55 54 56 58 59 59 58 53 54 54 58 61 64 65 65 63 61 61 64 63 68 71 63 60 56 59 65 66 60 55 57 60 64 66 66 64 60 58 58 56 56 52 51 51 51 53 59
61 58 56 58 58 59 59 57 56 59 60 58 61 63 60 64 66 66 64 64 65 69 70 66 61 60 57 65 66 62 59 60 64 66 63 59 56 54 52 53 54 52 53 53 52 52 51 51 58
60 59 60 55 62 57 57 59 63 64 64 62 62 63 60 62 68 67 65 67 69 74 68 64 63 63 63 66 64 58 61 68 66 58 56 54 52 52 52 50 48 50 50 52 52 53 55 54 57
66 63 63 65 64 63 62 60 61 60 63 64 61 60 60 61 65 68 67 67 73 70 67 65 64 67 68 65 58 61 69 61 54 53 53 52 51 51 53 50 45 45 48 52 54 53 56 56 58
66 64 64 72 71 65 63 64 64 61 62 65 60 62 63 63 64 66 66 72 69 66 66 66 67 68 65 62 60 67 61 56 54 52 52 49 47 47 47 48 48 48 49 52 54 55 53 56 58
73 61 69 68 67 64 67 69 67 65 64 64 58 63 64 64 64 65 69 71 67 67 67 67 68 64 62 61 64 60 54 52 52 52 49 46 46 45 46 44 45 47 49 50 52 54 56 56 58
79 68 73 71 73 69 70 68 69 63 65 61 58 62 62 65 65 66 68 67 65 66 66 67 65 62 61 63 61 53 53 55 54 51 47 44 41 40 41 44 45 47 48 49 52 54 56 58 60
80 76 75 73 77 76 72 70 68 67 69 63 62 62 64 65 66 68 70 65 64 65 66 66 61 61 61 62 55 53 56 58 54 51 45 41 40 40 41 40 41 41 42 44 47 49 51 54 57
83 79 76 78 76 70 70 74 66 69 71 66 64 63 66 65 69 67 68 65 64 64 68 62 60 59 62 57 52 57 60 56 52 45 43 41 38 38 38 39 40 41 42 42 43 43 45 48 51
80 79 82 82 78 75 76 69 68 72 71 65 63 65 68 66 64 66 64 65 62 65 63 61 58 61 58 52 56 60 56 53 48 43 40 40 40 40 37 35 34 35 36 36 36 37 38 41 46
91 82 73 69 75 77 78 59 66 72 70 66 66 68 63 62 62 63 61 61 62 66 59 58 58 60 54 52 62 56 50 48 40 39 40 39 38 34 30 28 27 28 28 31 33 35 38 41 46
75 71 70 67 65 75 76 72 63 70 66 65 65 65 60 60 62 61 59 58 61 60 58 55 60 57 55 55 59 51 45 40 39 40 37 33 29 26 23 22 24 26 30 32 35 37 39 39 40
77 78 76 73 75 81 74 65 69 71 69 65 64 64 60 57 60 58 56 57 60 56 53 54 58 54 55 58 54 47 42 39 39 35 30 25 23 20 22 27 30 33 37 35 34 33 34 34 32
85 84 81 76 77 79 78 70 65 66 68 66 62 60 58 54 56 53 55 57 54 50 50 56 55 54 55 56 50 44 41 39 35 30 24 21 24 26 30 36 37 34 30 28 27 26 26 26 25
79 76 73 74 73 78 75 72 65 64 62 63 58 58 55 53 53 52 53 53 48 45 52 55 52 53 55 51 44 41 39 37 31 23 21 25 26 30 35 38 32 28 25 20 20 20 19 21 23
67 64 68 72 75 73 70 66 59 60 58 60 57 57 53 52 50 50 51 43 44 45 51 51 52 54 52 46 43 38 37 29 24 20 22 24 28 32 37 32 28 24 17 14 12 14 15 16 17
61 71 69 64 61 59 61 51 54 59 55 57 57 54 51 50 48 47 37 37 40 45 48 50 53 51 47 41 36 35 27 23 18 22 27 29 33 36 32 28 23 14 8 7 7 8 10 13 15
65 70 65 59 56 52 50 35 51 55 58 58 52 49 49 48 42 34 34 37 40 43 47 48 49 50 43 37 32 28 21 19 19 25 28 33 35 30 26 21 10 4 2 3 4 7 9 13 15
65 58 53 50 50 41 38 37 52 59 55 49 48 49 46 42 30 31 34 37 40 42 44 45 45 43 35 32 29 23 20 15 21 27 34 28 26 24 19 11 5 3 1 5 6 6 10 12 13
46 47 44 42 39 29 38 34 52 52 42 41 43 43 40 28 26 31 31 37 37 41 43 44 41 36 31 29 25 19 12 16 23 30 26 26 25 19 10 7 7 5 7 10 10 9 10 13 15
49 47 39 35 27 36 33 36 47 37 34 38 37 30 22 22 28 29 32 33 35 39 42 41 37 31 30 26 19 11 12 20 27 22 24 25 17 10 8 10 9 12 12 13 13 12 13 14 19
51 37 43 28 21 32 30 35 42 30 32 28 20 18 21 24 27 27 28 30 37 38 39 36 30 28 27 20 10 7 15 26 25 18 18 18 12 9 11 13 14 14 14 13 16 18 17 19 25
47 42 27 22 27 32 34 41 43 27 20 17 16 20 21 23 26 26 24 32 33 35 37 34 27 24 22 14 3 8 16 29 25 17 19 18 11 12 12 13 13 16 15 14 20 20 23 23 27
43 33 29 26 33 37 38 39 34 21 16 16 19 21 24 22 24 20 26 27 31 36 33 26 24 20 16 8 4 8 15 29 30 17 19 18 15 14 14 13 13 13 16 17 21 24 24 26 28
51 41 33 29 38 39 35 36 23 16 19 20 22 22 23 20 18 19 25 27 28 29 24 23 19 17 13 4 6 5 16 20 25 22 17 17 17 18 16 13 13 15 17 19 21 23 26 30 30

GFSSGP_250_spd_009.txt.gz
Wind_Speed
50 47 39 36 37 43 47 41 40 44 45 46 47 45 44 45 47 50 44 44 45 49 47 45 48 45 52 53 49 51 55 56 54 52 49 49 47 46 47 49 53 53 53 54 59 61 64 63 65
47 49 43 46 49 49 53 50 49 49 52 50 47 43 42 43 49 49 46 48 48 51 50 48 47 46 54 50 50 58 56 52 50 51 47 45 47 50 53 54 54 55 55 55 57 59 59 63 63
52 50 49 52 53 56 56 50 54 51 49 48 43 42 47 45 44 52 52 48 51 54 52 53 47 50 52 46 52 56 51 51 51 52 51 51 52 55 56 56 55 57 57 60 59 61 63 65 63
52 50 51 53 60 61 60 57 55 52 45 43 43 49 47 45 49 49 51 54 56 55 57 58 50 52 55 51 55 58 55 53 52 52 52 54 58 60 57 58 58 59 60 63 66 66 67 69 72
56 56 56 54 53 52 54 59 54 54 53 53 53 55 54 51 45 44 48 53 56 60 58 56 54 56 58 55 60 64 61 57 54 51 56 61 60 62 63 62 60 61 62 64 71 73 75 72 76
62 59 59 62 61 57 53 59 58 58 55 57 56 58 56 49 43 49 54 57 58 58 59 56 58 60 60 58 64 66 64 60 57 56 60 61 63 64 65 66 66 63 60 59 61 72 81 79 78
67 65 62 65 60 63 62 54 58 58 59 58 60 59 59 56 46 54 60 62 61 64 65 62 64 63 61 62 65 65 65 61 58 62 64 64 67 68 67 66 65 62 57 53 52 53 59 68 77
68 63 58 59 59 59 56 54 57 54 54 55 60 59 59 59 60 61 67 71 70 69 61 63 64 64 62 63 65 65 64 63 60 65 65 68 68 68 65 63 62 62 61 55 51 50 52 55 58
77 68 59 59 63 64 62 57 58 53 55 56 60 63 67 64 66 63 67 67 70 67 64 65 64 65 62 64 66 67 67 64 64 68 69 69 68 64 65 64 61 60 58 54 51 51 50 51 55
75 72 66 69 69 71 69 65 62 60 57 63 67 68 67 64 59 59 69 72 73 69 67 64 66 67 65 63 68 68 68 65 68 69 70 69 63 62 64 60 58 54 53 51 49 47 48 48 52
81 73 73 73 74 74 72 71 67 63 64 67 72 69 70 68 65 63 67 72 74 70 66 66 67 69 68 66 69 69 66 68 70 72 69 63 59 59 52 49 50 48 48 48 49 49 46 47 48
82 75 77 79 78 77 74 73 73 73 73 76 76 78 74 70 67 70 73 73 74 70 69 66 70 70 70 69 71 69 66 70 72 71 64 58 56 54 48 45 43 42 42 43 45 47 47 46 47
79 73 81 78 80 79 78 75 75 75 79 79 79 82 78 74 70 72 74 76 76 73 70 68 71 72 70 71 70 69 67 70 72 67 60 59 54 50 46 45 41 38 39 38 41 43 47 50 49
81 85 81 79 78 79 79 76 77 74 74 79 83 84 80 74 72 70 69 76 75 72 71 70 68 71 70 71 69 67 69 69 71 61 58 54 51 46 44 42 38 32 28 31 34 39 43 46 49
90 90 87 85 84 84 86 78 77 76 83 86 87 84 82 80 79 75 68 72 73 70 67 67 67 69 69 70 69 66 70 71 65 57 56 53 50 44 43 40 34 24 26 29 29 30 36 40 45
98 97 86 81 87 90 94 81 81 85 89 86 86 83 84 87 80 67 64 61 68 65 63 69 70 68 69 69 67 67 71 67 57 57 54 51 48 45 44 39 28 26 30 33 35 35 41 41 41
99 98 90 86 92 95 102 90 80 86 92 90 87 85 83 76 71 63 62 56 63 65 67 69 69 67 68 67 66 68 67 61 57 57 52 48 47 46 41 34 26 25 30 37 40 45 43 41 42
83 90 92 92 90 101 103 97 85 88 89 89 87 79 70 72 66 66 62 57 64 65 68 70 67 66 66 63 65 66 62 56 56 53 49 47 44 40 34 30 29 31 35 40 45 42 41 43 42
90 98 94 91 86 99 98 98 83 82 86 83 77 70 67 70 66 67 62 60 64 63 65 66 65 64 63 62 66 61 57 56 54 49 48 45 41 35 31 34 37 39 38 37 42 44 47 48 46
95 94 82 79 79 91 93 88 81 77 74 77 73 66 64 65 70 68 64 64 62 61 63 62 62 61 60 61 59 57 54 52 48 44 45 42 37 37 38 40 42 43 44 45 48 48 48 46 43
85 83 78 81 81 83 84 78 67 67 70 66 68 66 67 64 65 65 66 62 61 60 60 57 58 56 58 57 56 51 51 48 45 43 40 37 39 42 44 45 41 40 38 39 40 41 42 41 37
74 71 73 70 71 74 75 62 59 65 61 61 61 64 61 59 61 62 59 57 57 57 54 55 54 54 54 52 51 48 49 44 43 40 35 36 42 45 45 35 35 32 27 25 23 22 22 22 23
67 75 71 66 67 64 61 57 53 62 55 55 56 54 51 53 53 53 52 51 51 48 50 50 49 50 48 48 45 47 45 40 38 31 35 39 42 35 35 28 22 20 18 14 12 13 13 14 14
73 74 67 64 58 49 51 51 48 47 50 51 51 51 50 51 50 48 47 48 45 45 44 44 45 44 45 43 43 45 37 33 27 32 33 35 31 31 25 19 16 15 13 9 8 8 8 9 10
76 70 63 56 50 40 43 45 44 40 43 44 44 44 44 46 45 44 42 37 36 37 37 40 39 41 39 42 42 33 29 21 26 30 30 29 28 19 16 13 11 9 6 5 4 1 3 4 6
77 71 64 54 46 44 45 34 41 33 36 40 39 33 36 35 34 33 28 27 27 31 33 35 37 35 39 40 29 25 15 20 26 29 26 29 20 12 10 7 8 9 10 9 8 7 6 6 7
76 78 59 60 48 43 34 32 37 32 34 35 28 25 23 20 16 17 18 20 25 27 31 33 31 34 39 31 22 17 16 18 23 28 22 25 13 9 6 6 7 8 10 8 7 8 9 10 11
88 69 73 58 48 37 34 34 40 30 28 22 16 13 12 11 13 16 17 19 22 27 29 26 31 36 33 22 19 12 16 14 23 27 19 19 10 8 4 4 7 10 11 13 15 13 10 11 10
82 79 69 63 50 38 36 42 32 26 24 17 15 16 16 18 13 16 17 19 26 27 23 28 32 34 26 17 19 13 11 13 20 29 19 16 9 6 3 5 9 11 16 20 16 13 13 13 13
86 81 72 63 47 34 36 39 30 24 20 11 19 19 19 16 18 15 17 22 25 20 24 29 32 29 22 16 16 13 7 11 17 26 17 16 9 5 2 8 11 14 25 19 13 12 12 14 17

GFSSGP_250_spd_012.txt.gz
Wind_Speed
51 50 47 45 45 42 41 41 39 40 48 45 45 44 44 47 47 42 37 42 39 43 43 44 46 48 50 52 52 52 52 47 47 50 54 55 54 52 49 51 47 46 50 54 57 57 57 59 60
45 46 45 44 47 50 48 41 45 49 49 50 52 52 51 52 48 39 42 43 43 47 47 44 46 48 52 54 53 53 53 53 52 53 57 58 58 53 51 51 53 55 55 60 61 61 64 64 60
54 52 51 50 51 53 53 46 50 50 57 58 55 54 52 50 42 42 46 49 49 47 46 47 47 51 52 54 54 56 59 58 53 55 60 60 58 57 51 51 54 56 61 60 60 63 61 64 65
61 57 57 56 54 53 51 53 52 59 63 59 61 57 51 47 48 53 55 53 46 41 43 48 53 62 59 62 59 59 61 58 56 55 59 60 60 55 54 55 57 58 61 61 60 60 62 59 60
64 61 58 63 61 54 51 49 49 49 52 57 55 56 57 54 54 54 55 54 47 44 52 58 63 63 63 64 60 61 59 58 57 57 59 61 61 59 58 59 61 61 61 60 60 62 63 63 63
61 64 61 54 55 56 58 58 55 57 54 53 52 54 59 63 56 53 56 57 57 57 60 71 65 63 66 64 63 62 61 59 62 58 62 64 62 61 63 65 65 63 64 63 60 61 63 66 70
68 66 62 57 55 59 58 60 62 62 65 64 60 58 57 60 54 53 57 56 62 63 62 69 67 68 68 69 66 65 64 62 65 63 67 67 66 67 65 69 67 65 66 59 53 52 51 51 57
68 67 69 69 62 58 62 64 64 61 63 59 57 52 52 55 56 52 56 58 63 68 63 58 73 70 69 71 71 67 67 64 65 67 70 70 68 70 71 72 67 64 60 59 59 55 50 48 50
74 71 63 65 69 66 64 62 61 63 60 58 60 57 57 58 58 55 54 55 60 66 68 61 67 76 70 73 73 71 68 66 67 70 71 70 70 71 73 74 67 61 61 61 58 56 54 53 53
76 76 69 70 72 73 74 74 69 73 63 61 59 63 62 62 62 64 62 61 61 71 75 65 62 70 73 73 74 73 70 69 69 72 71 69 71 73 72 69 67 67 63 53 52 52 50 51 52
79 69 73 75 74 76 75 75 73 74 70 67 66 67 68 69 72 71 71 71 68 74 74 79 70 75 72 74 73 74 69 70 70 73 73 71 73 74 73 67 64 61 51 46 44 43 45 44 43
84 73 73 76 76 79 78 78 77 75 73 70 69 69 69 74 75 78 77 75 72 75 79 78 70 76 74 74 71 72 69 71 73 71 72 72 74 75 69 64 60 49 48 42 42 41 38 38 37
83 75 81 79 81 81 82 81 80 77 77 76 72 71 75 75 76 79 77 72 74 76 79 81 70 72 75 70 67 67 69 70 71 70 72 74 75 72 67 65 58 48 40 39 39 37 39 38 38
85 85 88 84 82 82 84 81 83 78 78 78 79 77 80 77 74 74 77 75 78 77 79 77 69 70 72 70 67 71 70 70 70 69 69 73 75 69 67 59 51 44 38 33 32 28 29 31 36
91 91 89 82 79 78 82 82 81 79 80 81 83 79 78 77 77 77 79 80 77 76 73 75 75 69 69 69 71 73 74 71 68 70 70 71 71 69 64 53 47 40 30 27 29 28 30 32 33
94 98 94 78 85 80 94 89 80 89 88 87 86 87 84 83 83 78 79 80 76 74 73 71 77 68 68 69 72 70 73 70 66 69 69 72 68 65 54 49 43 35 27 24 29 32 34 34 34
98 93 89 86 89 88 92 98 83 88 91 87 82 82 82 83 86 81 82 81 81 75 72 71 76 68 68 68 71 72 68 67 68 67 68 66 65 58 54 49 39 35 26 26 29 33 37 38 39
96 97 94 88 96 99 97 101 88 90 93 90 90 86 87 86 86 86 83 82 74 72 70 72 74 70 68 68 68 68 65 64 66 67 63 62 58 54 52 46 41 37 33 33 36 37 37 40 41
100 100 92 88 90 90 94 98 95 89 82 83 88 82 84 83 81 77 74 74 73 70 70 72 71 70 67 66 66 62 63 63 64 63 61 60 57 52 47 43 41 42 41 40 35 39 44 47 49
97 92 88 86 88 88 95 95 88 77 76 77 81 80 78 76 73 71 69 69 67 71 68 69 70 68 65 63 61 60 59 60 63 61 60 57 54 47 44 43 43 42 43 35 36 37 42 46 47
88 85 85 83 82 82 88 83 77 74 70 77 73 73 70 69 70 70 66 64 62 66 65 66 66 63 58 56 55 54 56 57 58 58 53 51 47 43 43 42 38 35 34 34 31 30 31 32 33
85 81 84 85 83 77 81 69 66 68 67 67 64 59 58 62 61 61 57 58 62 60 60 57 54 51 48 49 50 51 54 52 54 50 49 40 43 43 39 40 32 26 25 23 21 20 19 18 17
70 75 80 79 79 76 70 67 52 55 54 51 48 48 51 55 53 54 54 55 53 54 53 50 45 42 44 44 45 51 48 50 45 44 40 39 37 36 35 25 25 24 22 20 16 14 13 10 9
75 78 76 74 73 66 54 58 43 45 38 40 42 47 47 50 50 48 51 52 52 50 46 42 39 38 37 40 46 43 45 41 40 35 35 38 34 30 23 23 21 17 17 14 11 10 9 6 6
79 79 75 70 61 45 48 39 38 37 29 34 39 41 44 46 45 49 49 48 45 41 35 32 32 31 35 43 38 40 40 34 33 30 32 33 30 24 22 18 17 17 14 10 7 6 4 3 2
84 79 74 64 56 49 45 33 39 32 25 31 37 38 39 39 41 41 38 34 28 25 24 24 26 30 37 33 36 39 34 30 25 24 32 28 26 21 19 13 16 15 15 14 10 11 7 5 6
87 90 69 66 60 53 46 38 38 32 29 33 35 35 35 31 24 19 18 17 13 15 19 22 27 29 29 32 35 32 28 23 18 23 32 23 23 20 14 12 13 13 18 16 16 13 11 11 11
99 84 78 68 63 54 47 40 36 32 32 33 32 28 20 13 10 10 8 7 11 17 21 25 24 26 29 33 31 27 23 16 15 21 31 22 23 20 11 8 11 19 19 16 17 14 10 15 17
98 90 80 73 64 58 52 41 36 30 35 34 29 17 11 11 10 13 10 13 18 20 23 19 22 27 30 32 25 24 16 10 11 19 29 21 22 19 10 6 11 18 15 15 16 10 11 14 19
96 91 84 75 63 60 54 41 34 35 35 33 17 17 17 15 14 13 16 15 17 20 17 19 24 27 30 23 20 19 10 5 10 18 25 21 19 17 7 5 17 13 11 9 14 13 20 27 29

GFSSGP_250_spd_015.txt.gz
Wind_Speed
41 42 40 44 51 48 45 47 42 38 42 41 41 45 37 39 40 44 46 40 39 40 39 41 49 47 45 42 43 53 56 55 58 57 55 58 57 53 52 53 55 54 54 59 56 52 49 46 52
44 41 42 45 50 49 45 47 43 44 43 44 50 47 46 42 47 52 48 43 43 43 45 48 46 51 44 41 48 56 58 56 53 56 58 56 56 53 53 53 57 58 57 53 55 56 55 55 57
51 48 45 47 50 52 49 47 48 50 54 53 53 52 47 50 50 52 47 42 45 51 53 50 52 47 43 49 55 59 58 61 60 59 57 56 55 55 55 53 60 60 58 56 55 58 59 59 60
55 52 51 49 51 54 55 53 57 57 57 52 58 57 51 49 51 55 51 45 51 55 53 51 51 51 56 58 63 66 62 63 62 62 62 59 57 59 56 58 61 60 60 57 60 59 61 64 62
62 54 53 49 53 58 56 57 62 61 56 61 65 60 48 42 44 44 48 47 49 55 55 52 54 56 60 61 66 67 65 66 64 66 65 62 61 59 59 61 64 64 59 61 62 62 61 62 61
61 58 52 59 60 61 60 61 59 63 64 62 62 64 53 46 53 53 53 47 48 52 54 56 60 56 56 58 62 64 66 63 63 67 68 64 64 61 62 63 67 64 63 62 63 62 58 58 58
70 68 60 58 62 63 63 65 61 56 55 58 62 65 60 59 60 59 55 48 47 50 47 49 57 63 59 65 67 69 70 69 66 71 70 66 65 63 62 66 70 66 66 65 63 57 51 48 48
84 76 71 65 65 63 64 65 66 64 60 63 58 56 54 56 56 61 55 53 51 43 48 51 53 73 67 67 70 74 74 70 68 74 70 69 65 65 68 70 69 67 68 66 59 49 49 50 50
78 75 73 69 67 67 70 71 75 75 73 67 63 53 52 56 56 56 60 61 61 59 60 58 62 67 78 72 73 76 73 70 71 75 69 68 67 68 70 71 71 69 68 61 55 53 53 49 47
79 71 66 71 74 70 69 70 71 74 69 67 67 66 63 62 64 63 66 68 66 64 59 61 64 64 77 75 74 77 74 72 73 75 68 69 70 70 72 72 71 71 67 59 58 56 53 48 45
85 74 73 75 77 76 74 73 73 72 70 70 70 70 70 71 72 73 70 70 68 69 63 62 62 63 75 78 77 78 78 73 74 73 69 72 73 72 73 72 71 70 67 60 61 54 52 45 42
88 83 80 77 79 82 78 78 76 73 69 71 70 71 72 77 77 77 74 75 74 74 72 63 64 65 71 75 75 80 79 76 76 72 71 74 73 73 73 71 70 68 67 64 57 54 50 47 42
80 78 85 84 85 81 80 78 75 76 72 70 72 74 74 76 77 78 79 74 68 73 73 76 68 72 79 79 76 81 78 77 76 73 73 73 74 74 71 71 68 64 65 59 53 52 49 45 42
88 90 88 91 90 86 83 77 74 71 73 74 77 77 77 80 79 80 77 74 72 75 78 82 76 81 81 79 79 79 76 75 75 76 75 74 74 72 71 70 67 63 59 52 47 45 40 37 36
90 95 93 86 80 78 86 78 71 76 72 74 78 81 80 83 79 76 79 77 73 70 73 78 77 81 84 83 79 77 72 73 74 72 72 72 72 73 70 70 63 62 60 51 37 37 36 33 34
95 99 94 84 84 77 94 75 80 78 80 82 83 83 81 78 79 81 82 80 77 75 75 86 82 82 81 81 76 74 71 70 72 70 68 68 70 72 70 69 63 60 55 45 32 31 34 35 36
100 90 88 83 84 88 96 78 81 82 83 82 81 79 79 80 79 81 82 84 85 83 83 83 75 75 76 78 79 73 73 70 69 68 64 65 68 69 68 65 63 57 47 37 30 26 33 36 35
102 99 94 86 91 95 98 89 84 81 83 84 81 83 86 86 85 84 88 87 79 75 77 76 73 71 71 74 76 72 72 72 67 63 61 64 66 66 66 64 59 51 42 37 34 32 32 40 42
104 103 100 97 99 101 93 90 91 84 87 90 88 86 85 84 85 86 84 81 76 72 71 72 71 64 66 69 71 69 67 64 59 58 55 62 64 65 61 57 48 45 44 40 41 41 39 43 45
96 99 94 99 101 97 95 96 92 84 87 88 87 88 82 81 81 79 77 75 74 67 66 64 58 59 60 63 62 62 56 52 54 56 56 59 62 61 55 49 45 42 41 36 31 26 24 27 32
87 84 83 87 92 93 94 92 82 80 83 80 81 76 74 73 68 68 66 64 65 62 58 53 53 54 55 56 54 49 47 49 51 52 55 59 59 54 47 44 42 31 26 26 23 22 20 21 21
88 85 85 85 85 81 85 74 70 74 74 72 68 64 60 60 58 58 57 58 57 55 51 49 49 50 50 49 47 43 45 44 47 51 53 52 50 47 42 39 28 24 24 21 18 17 16 16 16
78 83 83 85 83 81 73 64 60 66 66 61 58 55 49 47 51 54 55 57 53 48 49 47 45 46 46 44 41 40 38 43 45 45 47 42 41 40 36 26 22 22 21 21 18 14 13 12 10
79 81 83 84 82 79 62 65 51 54 54 49 48 47 43 44 46 46 47 44 42 45 45 45 43 40 39 35 34 34 38 42 40 42 37 35 35 31 24 22 22 20 19 16 14 13 10 8 7
83 79 81 79 79 60 52 57 42 45 41 40 38 35 32 36 35 34 36 37 38 40 38 33 29 29 28 27 31 35 37 38 36 33 30 30 29 24 20 19 16 16 17 17 12 11 7 4 2
89 86 81 72 66 53 51 41 43 40 32 30 29 29 27 25 30 32 31 31 28 24 21 21 20 21 22 29 33 32 33 33 28 27 24 27 22 19 20 15 13 16 17 19 18 14 12 6 7
94 89 73 74 70 62 53 43 39 32 24 23 26 25 21 24 30 28 20 16 16 14 12 14 16 21 27 31 29 31 33 26 24 21 19 21 17 18 16 11 12 12 12 14 17 15 14 15 18
96 87 88 77 71 60 55 47 41 31 28 25 27 26 18 25 25 14 10 8 8 9 12 16 20 26 25 25 28 31 27 23 22 13 14 21 16 18 12 7 8 9 12 9 10 10 16 16 19
95 94 88 79 73 65 58 53 48 34 23 24 18 23 20 24 13 10 8 10 14 16 17 19 23 21 21 26 28 24 19 21 11 7 12 20 16 17 11 6 4 10 14 12 9 5 12 19 20
93 91 90 85 74 68 63 57 45 33 26 25 24 23 22 18 15 10 9 15 17 14 18 19 18 19 22 25 22 17 17 14 5 6 11 17 19 16 12 4 4 13 12 7 7 8 20 22 21

GFSSGP_250_spd_021.txt.gz
Wind_Speed
58 53 53 56 51 44 41 32 42 42 40 41 44 44 43 45 49 47 40 40 39 41 46 50 55 53 51 46 46 49 53 55 45 45 49 48 46 50 56 60 62 60 58 57 57 58 57 54 55
55 58 51 46 58 51 49 47 43 46 48 44 47 45 45 50 45 46 46 43 43 47 53 55 57 55 48 45 46 50 55 57 55 53 52 50 54 59 63 63 64 60 60 60 59 59 60 59 57
57 55 52 48 56 54 52 51 51 50 49 53 49 47 48 52 52 44 41 44 49 53 53 54 56 52 49 47 52 61 55 55 55 52 52 55 59 63 61 65 66 65 64 62 62 60 57 55 53
72 62 57 53 53 49 51 51 49 51 51 51 51 49 48 49 45 41 40 44 49 53 55 58 58 53 52 56 60 56 53 53 53 56 57 62 62 61 62 63 66 68 69 65 60 56 53 50 52
67 68 64 60 62 62 58 60 56 57 58 55 52 53 48 49 47 45 45 49 50 53 58 61 59 58 61 56 51 49 51 59 58 58 60 59 62 64 66 67 67 69 72 67 61 57 55 54 54
71 71 69 69 69 69 67 65 65 66 64 53 51 50 48 52 50 48 50 52 50 53 56 57 54 51 50 53 56 55 55 57 59 63 66 69 68 68 69 71 71 72 74 69 64 59 56 56 57
75 72 71 75 72 66 70 65 67 67 66 63 53 52 52 54 54 52 50 49 51 51 48 47 48 49 53 57 56 55 61 63 65 71 72 72 72 73 74 75 74 73 74 71 67 63 59 59 60
85 80 74 71 71 73 73 64 67 66 64 60 63 57 55 57 58 59 53 50 53 54 56 52 55 59 58 57 58 60 62 65 72 75 76 75 68 71 73 73 75 75 74 70 68 65 62 61 60
85 78 74 75 80 75 78 74 75 77 73 64 63 62 58 62 63 60 59 58 56 59 61 62 60 61 62 61 64 68 71 77 77 78 75 72 71 76 76 77 78 76 74 72 68 66 63 60 59
86 81 72 71 72 70 70 65 68 74 64 65 68 69 69 66 62 63 58 57 59 61 64 66 66 67 71 74 77 80 82 81 80 80 80 80 81 81 81 82 79 76 74 72 70 67 64 60 59
93 89 86 78 79 79 74 64 68 69 62 60 63 65 67 65 65 60 60 62 63 68 67 68 71 75 78 82 81 81 81 82 83 83 79 81 83 82 79 79 78 75 72 71 69 67 62 59 57
98 92 87 84 85 88 87 84 78 73 68 71 69 65 61 62 61 63 63 67 69 68 68 68 70 73 74 73 75 77 82 84 84 83 84 87 82 80 79 79 76 75 72 70 68 64 61 59 55
102 93 97 93 91 90 90 85 84 82 81 73 71 68 73 71 70 69 69 65 66 67 68 71 72 72 72 70 76 81 85 89 88 84 85 85 84 82 81 77 76 72 68 67 64 62 61 58 55
102 99 98 96 97 97 95 85 81 72 70 70 69 67 70 71 70 71 73 74 75 75 71 73 70 70 71 74 79 82 88 88 85 82 82 83 81 83 78 73 70 67 65 64 60 60 60 58 53
104 102 101 97 97 93 91 80 68 68 72 70 72 72 74 75 79 77 74 77 74 74 77 74 73 74 74 76 82 87 88 86 85 83 84 82 80 77 71 67 63 62 64 61 59 60 62 59 55
106 105 102 95 98 99 102 84 80 82 83 81 82 82 82 81 78 74 75 75 75 77 79 78 77 79 82 84 86 86 85 86 83 83 81 77 73 66 63 60 58 58 60 60 62 62 59 58 57
101 100 95 95 96 102 101 84 88 94 93 87 89 90 87 76 77 78 77 78 79 82 79 76 75 79 81 82 84 84 81 81 80 78 75 70 63 58 53 45 47 55 59 64 63 60 57 55 49
98 92 97 100 98 101 102 90 88 87 91 90 86 80 76 77 77 79 77 78 80 78 76 76 76 78 80 83 81 78 77 76 76 71 66 61 54 49 38 35 49 59 63 62 61 59 56 45 42
108 105 99 99 100 104 91 87 88 90 88 83 79 77 77 76 76 78 81 81 79 80 76 78 81 84 83 81 78 74 75 72 68 62 59 55 49 51 44 48 55 60 61 60 59 58 49 40 37
121 112 108 104 108 106 96 89 84 84 86 87 83 82 80 79 80 85 87 85 86 81 83 82 85 84 80 78 75 74 71 68 61 56 54 50 47 47 47 50 55 59 57 56 55 51 45 43 38
122 120 113 113 113 107 103 96 90 90 87 86 85 85 87 87 90 92 89 87 80 83 79 79 79 77 72 72 72 70 64 54 52 49 47 45 41 43 46 50 54 54 51 51 49 44 43 41 35
116 113 113 119 113 107 111 103 103 100 91 89 90 90 87 87 86 89 80 74 72 74 72 69 68 66 68 68 68 62 53 49 45 41 40 33 36 42 48 50 50 47 47 44 41 41 39 36 31
111 111 111 114 115 112 99 90 78 88 86 84 82 81 79 73 69 67 67 64 63 60 59 61 62 65 66 64 57 49 44 42 34 34 28 34 39 45 47 45 44 45 40 36 38 34 31 30 28
108 107 106 105 104 95 91 86 72 75 76 75 69 62 59 58 58 56 57 55 55 55 56 59 61 61 57 51 43 39 36 34 30 30 31 35 40 43 41 42 42 38 35 33 29 27 25 24 22
106 104 101 100 95 85 86 77 71 77 75 71 63 62 61 60 55 55 53 51 52 52 53 56 55 51 44 36 32 32 30 26 29 32 32 36 39 39 37 40 37 32 28 25 24 25 22 18 16
109 103 98 94 87 78 77 68 65 69 65 62 59 59 57 54 53 50 47 44 45 46 47 47 43 37 29 28 27 23 26 29 32 31 35 36 34 30 33 35 30 26 21 22 21 18 15 12 13
114 104 99 94 85 76 67 56 52 53 54 53 54 50 47 45 42 39 39 38 39 41 37 31 28 20 20 20 21 25 28 30 31 34 35 30 26 24 27 28 24 20 18 18 16 13 9 8 11
111 109 105 95 84 74 64 54 44 46 43 43 37 37 33 33 34 34 32 33 35 27 21 15 15 17 20 21 24 27 29 32 34 33 27 24 19 22 24 25 18 16 18 17 16 9 7 5 5
103 107 105 99 89 75 63 51 46 50 41 34 34 31 29 31 28 25 31 32 22 21 17 16 18 21 22 24 26 28 30 33 31 25 23 17 19 19 21 21 14 13 17 15 9 6 7 4 2
95 96 98 96 89 79 66 53 59 50 39 35 33 30 29 28 25 28 29 21 23 18 13 19 19 22 24 26 26 29 31 29 24 22 20 16 18 18 19 19 11 12 14 10 7 5 5 3 3

GFSSGP_250_spd_024.txt.gz
Wind_Speed
71 65 64 59 57 53 51 48 45 38 42 39 38 36 35 35 34 39 41 40 38 38 36 38 40 46 50 53 53 54 54 49 45 54 54 51 51 53 53 52 53 58 60 57 60 61 60 60 59
65 70 69 61 65 61 54 44 40 49 44 41 45 41 39 40 41 42 42 38 43 42 43 44 48 50 52 54 58 56 54 51 55 54 51 50 50 52 53 56 58 61 64 63 60 60 63 61 59
60 59 64 65 55 51 52 48 47 47 53 51 50 51 47 45 49 46 42 45 47 50 50 50 48 53 54 56 54 59 57 57 51 49 47 52 52 52 66 69 65 67 66 66 66 64 65 60 57
65 61 56 64 64 62 53 54 49 47 50 51 50 50 47 46 46 45 45 48 49 53 50 53 54 53 55 57 57 54 52 46 46 50 51 52 56 67 71 68 69 70 70 69 66 64 63 59 58
76 70 69 62 68 64 62 57 57 51 50 49 51 50 46 49 48 46 45 47 49 52 50 54 53 55 55 55 55 52 47 47 51 56 58 59 66 72 69 70 70 72 69 70 73 71 68 65 61
76 78 72 69 70 69 69 65 61 60 61 62 59 57 54 54 57 55 51 45 46 52 52 53 54 54 52 49 49 55 60 61 64 65 68 69 74 74 72 74 74 73 73 76 78 75 72 67 62
77 79 78 74 74 69 66 64 64 60 62 66 66 65 64 62 60 57 53 51 56 53 52 57 57 51 49 57 64 65 71 70 70 71 70 72 73 75 78 77 77 73 75 76 75 73 71 69 64
84 74 66 74 79 72 75 70 65 63 67 69 72 71 68 68 62 65 65 61 53 51 55 57 55 58 57 61 67 69 66 64 64 65 71 74 77 77 80 81 81 77 77 78 75 74 73 68 63
88 80 72 68 73 75 74 71 73 66 65 68 68 68 66 64 66 65 54 54 56 59 56 57 59 58 59 61 67 67 64 67 75 76 78 80 80 79 82 83 78 74 75 76 76 75 70 67 63
94 88 80 82 83 84 82 75 75 70 68 70 70 76 70 64 64 53 56 56 55 55 58 59 58 59 61 65 68 70 73 73 77 79 78 78 81 85 83 79 77 75 76 75 75 73 70 64 60
97 89 88 87 82 75 77 72 71 70 70 78 77 68 59 53 53 52 52 54 56 60 59 56 57 60 66 72 71 71 81 81 79 79 78 82 84 84 83 82 79 78 77 74 73 70 66 63 58
101 98 94 93 94 89 80 73 66 62 65 67 63 62 67 58 57 60 58 56 58 61 61 61 65 74 76 70 76 81 81 81 81 81 82 83 82 84 84 82 78 76 72 68 67 64 64 60 55
106 99 100 100 102 99 100 92 85 75 76 80 79 73 71 72 70 69 70 72 74 77 71 70 74 75 76 80 81 79 79 79 84 84 83 82 79 80 81 81 78 73 67 63 61 62 62 57 52
106 106 105 105 100 99 100 94 94 78 80 78 79 78 79 79 81 83 82 78 74 69 69 73 73 77 77 74 76 79 81 81 80 77 79 79 76 77 78 79 75 69 63 59 60 62 56 54 57
106 109 108 103 101 101 100 97 81 74 81 82 81 81 78 76 79 75 75 69 66 68 70 73 74 76 74 75 78 77 78 80 80 82 83 83 77 72 76 74 66 64 63 64 59 57 57 59 60
107 107 108 101 100 98 101 90 86 89 92 88 86 89 88 82 78 71 68 69 69 71 73 77 78 76 74 74 75 75 80 84 85 86 86 80 73 71 70 62 58 58 63 60 58 58 61 63 64
109 104 105 104 103 103 102 87 93 97 98 93 92 90 86 83 78 77 78 77 73 71 74 75 74 73 72 75 80 84 87 91 92 91 84 75 73 67 58 54 53 56 56 55 57 63 62 63 59
105 103 106 104 104 106 103 94 94 95 95 94 91 89 86 84 83 81 81 74 72 72 72 72 74 74 79 83 88 91 92 90 87 80 74 71 68 59 53 49 46 50 49 55 61 60 63 59 52
115 109 107 108 103 102 100 98 92 95 92 88 87 89 87 84 84 80 76 73 73 73 75 75 76 82 86 88 90 89 83 83 76 73 71 67 58 54 46 45 46 46 50 56 57 61 58 55 51
127 120 110 107 104 100 97 94 86 86 85 85 86 85 84 82 79 77 76 75 75 75 75 80 85 88 91 90 81 76 76 72 70 72 69 59 55 49 44 38 34 48 54 54 58 55 55 53 49
127 124 123 112 110 104 100 92 82 79 75 75 76 80 81 77 73 75 75 76 77 79 81 84 88 81 80 74 70 67 69 68 68 63 57 52 47 42 40 37 43 50 51 54 50 51 51 49 49
123 125 125 124 123 113 109 94 87 83 79 78 80 85 85 78 78 80 79 77 79 82 85 81 75 67 65 64 63 64 65 64 55 53 51 45 38 29 35 43 46 49 51 46 48 48 45 45 45
120 123 121 121 117 112 113 107 85 92 84 84 92 89 81 81 82 82 85 78 86 81 68 62 57 58 60 64 63 61 54 48 49 48 42 36 25 31 40 43 48 48 44 44 45 42 39 38 37
117 116 116 116 112 104 102 105 94 93 91 92 92 90 85 80 78 75 74 73 67 62 57 58 58 59 59 61 58 48 47 44 40 36 30 26 28 36 41 45 45 41 41 41 38 35 35 34 32
118 112 107 104 103 93 96 92 76 83 88 88 87 85 82 73 69 68 63 61 59 59 57 58 57 57 57 50 45 44 40 35 30 30 28 30 36 39 41 39 36 36 38 34 31 31 29 26 27
116 113 109 100 92 88 87 76 69 70 73 77 75 72 67 67 67 62 61 60 55 52 53 52 51 48 45 41 39 35 30 28 27 29 32 33 36 37 33 29 30 32 32 27 29 27 25 22 25
111 109 108 105 94 84 74 68 64 66 65 61 60 59 59 60 57 57 53 46 45 47 47 43 40 38 34 31 28 27 28 27 30 31 32 34 34 29 28 23 28 30 26 27 28 31 23 18 20
102 106 104 101 95 85 70 63 57 60 57 52 47 44 44 44 43 41 42 41 39 40 36 33 32 25 25 26 28 29 30 31 31 32 34 32 27 27 20 21 25 27 21 24 25 22 13 13 16
97 97 94 96 91 85 75 63 57 61 54 45 40 36 34 34 36 38 35 32 34 31 31 28 25 20 23 25 28 31 32 31 32 34 30 26 25 22 18 21 24 23 18 23 21 15 9 11 9
84 88 83 81 85 81 74 68 62 58 54 42 37 33 30 31 32 29 29 28 28 27 25 21 18 20 21 25 30 32 32 33 34 29 27 24 21 16 17 21 24 19 17 18 16 9 8 7 7

GFSSGP_250_spd_027.txt.gz
Wind_Speed
64 62 60 61 62 63 61 52 46 45 43 42 44 37 43 40 34 34 34 36 35 36 36 36 35 44 47 47 49 53 47 46 45 48 50 48 46 44 42 47 47 45 57 69 68 69 66 66 62
65 60 55 55 63 63 64 60 49 48 50 38 43 45 40 38 35 37 39 40 40 42 41 43 45 46 48 50 54 52 49 46 49 50 52 47 43 44 48 52 50 56 69 69 65 63 63 62 57
66 67 56 56 59 61 62 63 55 47 52 49 38 43 43 41 40 37 39 43 45 45 45 44 46 48 50 54 51 52 47 50 50 50 50 43 51 53 58 57 63 69 72 68 66 66 65 62 58
70 67 66 64 56 61 62 53 64 58 54 43 53 49 50 49 47 48 43 42 47 47 46 47 52 50 59 53 49 53 52 52 47 42 45 57 61 66 65 68 74 74 71 69 68 71 74 69 62
74 75 68 71 66 64 60 60 57 62 62 59 52 54 52 53 59 54 52 47 46 50 52 57 55 57 56 54 56 57 56 52 47 51 53 63 65 63 69 71 70 70 71 71 76 80 71 63 60
75 76 68 73 77 70 67 65 66 59 61 59 61 59 58 56 55 53 52 47 49 56 58 57 58 59 55 55 59 60 59 56 57 54 62 63 63 66 69 71 70 71 72 77 80 76 70 66 64
80 76 71 68 75 71 74 71 67 65 61 60 62 61 62 61 58 57 54 54 56 60 58 59 58 55 52 59 62 63 60 61 61 61 65 65 66 70 74 73 75 77 77 78 78 73 70 68 68
89 82 77 75 72 67 74 74 67 67 66 63 65 63 61 60 59 58 58 60 63 61 57 65 55 55 59 56 60 61 64 63 63 65 67 70 73 79 79 78 79 80 80 78 75 70 69 70 67
90 86 80 76 81 82 76 72 71 69 69 67 67 67 65 67 65 64 64 61 59 59 61 57 56 57 54 56 59 63 63 64 63 69 73 72 78 82 78 78 78 76 77 76 73 70 69 66 61
92 84 80 79 79 78 77 76 79 80 75 69 69 64 64 63 62 63 68 62 66 60 55 55 51 55 55 58 62 61 61 67 71 75 78 81 81 77 79 74 77 79 79 75 71 68 66 64 59
94 88 90 89 90 90 82 77 68 63 68 64 58 59 65 68 69 71 63 66 54 62 58 54 54 55 56 65 69 65 69 73 75 78 81 77 79 76 72 76 79 82 77 72 69 65 62 58 54
96 92 96 95 95 94 88 86 80 76 65 65 65 71 70 72 73 69 62 49 59 59 56 57 56 62 72 70 66 67 69 74 76 78 79 79 77 73 76 81 86 83 76 69 65 63 60 55 54
99 93 94 96 99 99 99 88 86 78 77 81 82 65 68 73 69 66 55 57 59 61 60 61 73 74 76 70 63 68 72 73 78 79 80 79 76 81 83 85 82 78 72 68 64 62 55 51 51
101 99 100 100 101 101 102 96 94 84 86 83 80 73 69 64 67 70 60 67 67 67 73 75 75 79 70 66 70 73 71 74 76 77 79 81 81 85 83 81 78 70 68 67 64 59 51 48 52
103 105 107 104 105 103 107 104 90 82 86 90 86 84 85 81 78 78 79 71 71 68 73 77 73 72 70 77 74 69 71 72 75 79 85 84 85 85 78 77 69 67 65 62 59 55 52 51 52
107 108 105 105 108 105 108 96 90 96 93 88 88 90 90 86 84 80 75 74 74 78 80 74 75 78 78 75 69 70 72 75 79 86 89 89 85 77 74 68 65 63 62 56 54 51 51 52 54
113 108 105 103 105 106 111 93 99 99 96 92 90 90 85 79 74 73 75 79 81 78 74 77 77 75 75 73 68 69 73 79 84 88 85 85 75 73 66 65 62 58 55 53 52 50 50 51 54
116 112 111 109 108 107 104 92 95 94 94 91 87 84 80 77 76 81 84 82 81 79 77 76 75 75 70 64 67 73 78 83 89 87 83 73 70 66 64 59 56 51 48 48 46 51 51 54 61
122 121 119 115 115 111 104 98 97 95 90 87 85 84 85 84 85 79 78 79 77 75 73 70 66 62 64 67 70 75 83 87 82 74 71 66 65 63 56 54 50 44 41 44 45 46 55 59 61
127 123 119 116 115 114 107 99 94 91 88 86 86 83 83 83 82 79 78 77 75 72 68 63 60 65 68 71 76 81 87 77 71 67 65 64 60 53 53 47 35 36 36 40 45 53 55 58 52
127 124 120 118 117 111 107 98 93 90 86 85 83 81 79 77 78 77 76 71 65 59 59 61 65 71 75 81 78 80 72 68 66 66 64 53 51 51 46 37 33 35 38 42 52 54 54 46 42
128 125 121 118 120 116 113 96 94 91 86 82 80 81 77 75 74 73 67 59 56 60 63 66 69 73 77 71 70 67 67 68 66 60 52 50 49 44 38 30 35 40 44 48 54 47 45 40 39
128 127 123 120 116 109 102 94 92 97 89 85 86 86 81 76 73 67 65 62 67 69 68 70 72 71 66 63 61 64 66 64 54 49 49 46 40 34 30 32 37 41 46 52 48 40 37 36 37
117 121 123 122 116 108 101 95 85 96 98 96 92 89 87 82 75 72 70 69 71 71 75 75 73 69 59 59 62 61 61 50 48 45 39 35 32 31 33 36 40 43 45 39 37 37 33 35 34
116 116 114 115 112 102 103 94 83 94 97 98 99 97 92 88 86 78 76 77 74 74 72 69 67 61 58 59 59 56 44 42 39 34 31 31 32 34 35 38 41 36 32 32 35 33 30 34 33
106 110 113 111 104 97 97 88 86 85 83 89 90 89 84 80 80 82 82 79 75 71 67 64 59 56 56 54 53 41 38 33 30 32 32 35 35 35 38 36 29 28 25 31 32 26 31 32 21
96 93 103 108 105 103 93 85 77 74 78 79 77 75 71 68 69 68 66 65 64 61 53 52 52 49 49 46 37 33 30 29 31 33 35 34 36 39 33 27 27 22 25 31 24 25 27 18 13
83 85 93 93 95 98 94 90 77 72 72 65 60 62 58 57 57 55 53 52 50 48 47 44 44 43 39 30 28 27 26 28 31 33 34 35 36 31 27 26 21 21 25 26 21 21 13 12 10
67 72 80 81 84 89 89 88 82 72 67 57 49 48 47 45 41 40 40 41 39 37 37 37 38 32 27 24 25 26 27 30 30 31 33 34 30 27 25 21 17 21 24 19 15 8 7 5 7
58 61 69 72 77 84 85 86 77 69 67 54 46 44 40 38 35 34 30 29 28 31 33 32 26 22 22 23 24 25 28 26 29 32 33 28 27 25 21 16 17 21 21 12 6 9 7 1 5

GFSSGP_250_spd_030.txt.gz
Wind_Speed
62 57 57 52 55 51 52 51 52 52 50 48 45 43 49 48 38 42 42 40 41 38 38 40 41 40 42 41 42 43 45 48 43 48 50 49 45 42 40 48 53 56 60 56 59 65 66 65 64
68 66 66 58 56 56 53 53 54 58 57 55 51 41 38 45 44 40 44 41 41 41 39 39 42 45 45 42 45 48 49 48 48 55 53 53 44 38 53 54 57 58 56 58 63 67 65 64 64
75 68 72 68 61 63 60 54 55 54 55 57 57 50 50 50 35 47 44 37 39 39 39 40 44 49 46 42 48 49 54 54 55 53 55 53 48 50 48 62 59 60 60 64 70 68 66 69 71
79 68 66 64 66 64 61 56 49 60 50 55 55 44 44 49 51 42 45 44 43 45 48 50 52 47 46 47 51 55 56 57 50 52 50 50 51 53 57 61 60 64 67 70 75 71 71 73 72
72 72 65 66 71 73 65 60 58 54 57 48 45 49 55 50 56 54 55 56 56 60 59 55 56 53 49 55 54 56 55 53 53 54 55 53 57 56 58 60 68 69 70 73 74 72 73 68 64
80 78 74 68 71 74 68 69 70 61 64 60 57 57 60 59 63 63 60 58 55 55 54 54 55 58 56 53 56 57 58 57 55 53 55 57 60 60 60 67 72 71 73 74 73 72 68 71 68
87 83 78 74 75 76 74 67 70 66 70 64 61 63 61 60 60 60 56 54 53 54 55 57 56 57 58 56 56 59 57 55 55 57 60 67 62 61 69 72 73 76 74 76 72 68 69 72 68
91 87 79 77 79 80 78 71 72 68 72 69 68 66 64 62 62 60 57 59 57 54 56 59 62 64 65 60 57 57 54 58 58 58 71 68 64 69 72 74 76 75 77 74 71 73 74 71 68
99 91 86 83 81 83 83 80 75 79 73 70 69 65 67 66 63 62 63 64 62 60 59 60 64 63 59 55 57 53 55 56 62 72 75 67 66 71 74 74 77 75 73 75 78 74 70 68 63
100 96 90 89 85 85 86 80 76 76 75 74 76 72 62 62 61 63 64 64 62 59 59 63 64 62 59 59 55 56 58 57 71 73 70 66 71 73 73 76 73 73 77 78 78 71 69 63 60
100 96 94 98 98 99 98 89 84 82 77 75 78 76 78 73 70 67 66 64 62 63 65 63 60 54 54 56 55 55 58 69 73 73 68 74 74 73 76 71 75 78 77 81 70 69 64 62 61
97 94 91 93 99 98 99 97 88 85 78 74 69 73 75 75 74 73 69 67 70 65 58 61 55 53 57 55 57 58 70 76 78 69 77 74 73 74 72 74 80 81 77 69 74 65 62 62 60
94 94 97 101 102 98 99 92 88 82 78 73 67 65 66 68 64 67 67 65 65 62 61 56 53 58 55 58 64 72 76 75 73 76 74 71 74 75 76 80 85 81 75 67 64 62 62 61 52
103 101 99 99 102 100 102 97 100 84 89 85 81 80 72 63 65 66 64 61 61 60 56 55 61 60 71 71 71 73 76 73 76 73 70 72 74 76 80 84 83 76 68 61 61 63 61 54 48
104 106 106 102 101 100 101 102 89 86 89 91 89 84 77 79 78 72 74 70 62 58 58 67 70 70 73 70 71 73 75 74 72 69 70 71 75 79 86 81 75 67 62 61 60 60 54 49 47
112 115 108 101 105 103 110 99 85 91 95 89 91 92 88 86 85 84 84 83 71 73 76 74 73 71 70 70 76 74 74 69 67 68 69 74 80 80 83 76 70 67 66 61 56 54 48 46 42
119 112 109 104 111 113 116 104 95 100 101 94 90 91 90 88 88 88 86 81 81 80 79 73 72 70 70 76 74 69 64 63 65 69 75 79 78 79 75 70 69 68 63 57 53 49 43 38 39
118 124 123 114 109 118 116 103 98 103 101 96 95 92 92 88 85 84 84 86 85 78 73 71 72 72 76 71 68 63 64 65 68 71 78 77 76 71 70 72 69 65 58 51 49 43 41 35 39
121 122 121 118 118 119 115 104 105 105 102 100 97 93 92 90 89 90 88 82 76 71 73 72 74 76 70 66 63 62 62 65 70 75 76 73 68 69 70 69 65 58 49 43 44 44 39 39 45
121 121 118 119 121 119 117 109 106 102 97 95 92 93 95 95 94 87 82 77 78 77 76 75 72 71 63 55 56 58 62 66 69 74 71 67 66 69 68 63 56 47 41 39 43 41 40 44 50
125 123 122 121 121 120 116 110 107 103 98 94 91 89 87 85 83 83 79 75 73 70 70 70 68 64 53 52 55 61 64 68 71 75 66 65 67 66 60 54 45 40 36 38 41 43 47 47 54
122 126 126 124 120 114 117 111 109 105 100 96 91 90 91 92 87 81 74 74 74 69 66 65 62 60 56 56 59 65 69 71 75 70 65 65 64 58 50 42 38 35 35 38 40 43 49 51 47
116 118 125 127 121 116 112 113 103 103 101 98 98 100 99 95 87 78 75 70 67 66 61 58 56 57 58 61 64 68 69 68 73 66 65 62 56 46 37 35 35 37 37 40 42 43 43 42 42
112 118 116 114 119 119 106 112 95 102 102 105 102 99 97 90 82 78 78 73 69 61 61 62 62 65 66 66 72 71 72 68 65 64 60 53 45 37 35 37 38 37 40 43 41 40 41 40 33
101 108 111 110 109 102 104 113 96 97 102 103 104 101 93 87 85 84 83 78 74 71 70 71 72 71 72 72 74 76 66 62 61 57 51 44 38 36 37 39 37 41 43 40 35 32 35 29 28
91 94 97 100 101 101 103 95 91 99 100 99 99 96 95 91 80 79 80 80 80 78 76 76 76 75 73 74 67 62 56 56 52 45 43 37 35 37 36 36 40 40 35 33 28 30 27 24 19
74 80 88 88 89 95 93 90 90 91 96 97 94 92 86 79 75 76 78 79 77 78 76 73 69 68 63 58 55 53 50 43 39 40 36 36 37 35 36 38 36 33 32 26 25 27 20 17 12
61 68 72 79 78 73 87 91 91 94 92 84 85 80 78 72 70 70 70 69 64 64 63 60 59 56 52 51 48 44 35 34 36 34 34 37 34 34 37 35 32 30 25 23 24 18 15 11 9
55 57 59 67 71 70 83 83 93 93 88 74 71 70 66 62 60 60 57 56 55 53 51 49 49 46 45 43 37 29 31 31 30 32 34 32 33 36 34 31 29 25 22 22 18 15 11 10 8
47 49 53 57 63 69 79 88 91 87 84 76 69 62 56 50 46 46 46 44 41 41 40 40 40 37 35 26 26 25 26 28 30 33 31 31 34 33 28 28 23 18 19 19 14 10 11 9 6

GFSSGP_250_spd_036.txt.gz
Wind_Speed
63 56 57 56 52 51 53 49 44 44 46 48 46 48 48 49 46 48 44 43 43 40 43 38 44 36 34 35 34 37 36 40 41 46 46 46 50 54 60 51 54 55 53 55 54 62 65 62 62
65 66 60 57 57 53 60 53 54 51 49 51 49 50 49 49 46 49 47 50 50 51 42 36 39 35 37 38 33 33 38 41 49 51 48 49 49 57 57 53 49 49 55 59 58 72 58 58 65
67 74 68 59 57 60 68 61 60 54 56 50 55 51 52 52 49 53 52 59 57 56 43 45 32 37 40 33 38 36 44 49 52 47 46 49 55 56 56 54 49 54 55 58 69 70 66 69 67
75 75 74 66 61 71 75 65 67 55 57 55 60 59 57 54 51 53 50 51 49 49 50 43 41 44 41 45 45 46 48 57 45 46 49 55 58 61 57 53 53 56 60 60 73 72 71 72 68
79 79 71 67 67 73 67 64 71 59 57 59 56 61 61 62 57 57 52 48 48 47 45 46 49 50 49 49 46 52 57 49 47 50 54 58 65 56 58 56 54 61 63 64 78 74 73 72 69
81 79 76 73 72 71 72 67 68 63 59 68 60 59 62 65 59 62 61 54 53 43 42 47 48 49 46 47 50 51 50 51 51 51 53 62 66 61 62 53 61 64 63 77 77 76 75 69 67
91 87 84 78 77 76 78 78 73 64 64 69 63 63 65 63 65 67 69 66 53 47 44 42 45 47 52 54 50 48 54 58 55 53 56 63 60 65 58 59 62 63 74 79 76 78 72 68 73
96 94 92 84 83 79 77 83 82 75 73 74 75 67 73 69 69 68 73 71 68 62 56 57 58 58 61 61 63 61 61 59 54 58 67 66 62 66 62 58 62 77 80 79 77 75 69 75 76
106 98 87 88 92 81 87 86 83 79 83 81 77 76 69 70 65 68 76 75 73 67 68 69 68 68 69 69 59 57 56 57 62 68 70 64 64 63 60 65 71 76 79 78 75 71 73 78 75
106 105 95 95 88 90 94 91 92 87 86 82 78 83 80 78 72 67 72 72 73 68 66 65 69 66 63 62 64 57 62 68 68 70 64 64 62 60 64 70 77 76 80 79 73 71 77 77 70
103 97 99 99 101 101 95 93 96 91 87 92 88 75 83 78 80 71 78 73 74 71 71 72 70 69 68 69 69 71 70 70 67 59 61 61 57 61 68 78 77 77 81 79 72 71 77 73 66
114 95 94 99 103 108 108 107 96 89 88 95 95 93 90 80 81 83 80 74 74 77 68 77 64 71 65 64 64 68 66 65 62 61 61 54 62 73 76 84 76 78 81 75 71 72 75 70 69
110 108 104 95 105 111 111 107 107 106 97 93 87 87 93 90 86 84 79 78 77 76 73 75 66 64 69 68 67 62 56 56 55 53 53 61 70 77 87 79 74 81 82 71 69 73 73 71 72
109 107 111 114 106 102 101 100 103 96 97 96 91 83 94 94 89 86 83 79 76 76 77 73 68 68 68 65 58 55 52 46 52 53 61 67 78 90 81 77 78 79 73 70 76 74 71 71 72
109 107 103 108 112 112 109 110 101 89 92 96 100 100 100 93 89 86 85 82 74 74 74 71 76 76 52 51 53 57 56 63 63 65 69 78 85 82 79 77 82 77 65 70 73 75 72 73 68
108 108 101 98 105 101 110 108 101 93 100 105 101 101 105 106 102 96 87 93 90 92 82 82 81 75 59 55 51 60 70 71 62 70 78 81 84 79 76 79 74 67 70 71 74 73 73 70 62
109 108 108 109 107 108 112 107 98 96 93 99 106 107 105 103 104 103 99 100 95 91 90 79 83 81 79 80 78 78 79 77 77 79 83 82 79 77 80 74 67 66 74 75 75 71 70 65 58
109 113 113 108 109 119 115 114 98 101 103 103 95 92 99 101 100 103 97 101 99 89 77 79 79 80 81 76 73 74 71 70 73 76 82 82 78 75 73 66 69 70 72 76 72 71 65 56 49
112 112 108 106 113 126 127 125 106 106 110 108 106 108 99 89 83 85 86 91 90 82 77 73 77 78 77 76 73 76 78 79 80 81 83 81 72 68 63 65 67 73 74 73 71 66 58 50 45
115 115 111 111 113 125 123 124 106 109 108 113 112 106 102 102 99 94 91 93 92 80 73 78 77 75 76 77 79 81 82 81 80 81 80 72 66 58 61 67 71 72 73 69 67 60 52 48 47
108 115 115 117 119 123 116 119 113 108 113 113 111 109 105 101 100 98 95 96 94 83 83 84 78 77 78 77 79 79 78 79 76 68 65 62 59 59 68 72 74 73 70 66 64 54 50 48 47
101 105 112 119 122 122 120 123 118 109 111 116 117 109 104 109 105 104 99 96 95 91 86 81 80 78 76 76 74 74 70 69 66 60 59 57 59 66 70 74 72 69 64 62 55 52 49 47 46
103 104 105 106 111 120 120 127 114 110 110 110 113 116 115 106 105 104 102 98 97 88 82 80 77 75 74 75 71 69 66 63 63 62 59 60 67 71 74 72 66 62 60 55 50 49 48 47 43
100 104 107 108 108 110 100 117 114 113 112 112 115 115 113 113 111 100 92 86 84 82 75 75 78 78 76 72 72 70 63 61 56 62 63 62 68 71 70 64 60 58 55 48 48 48 47 45 41
96 99 101 105 109 105 100 113 103 104 111 117 117 114 111 108 108 105 101 93 80 76 76 72 70 76 78 71 66 67 65 63 59 66 64 65 66 65 62 59 56 53 47 45 45 45 45 40 39
90 91 97 100 101 100 104 113 93 96 100 105 110 114 113 107 104 101 104 104 93 81 75 71 72 71 75 71 69 69 65 64 65 63 64 63 61 59 57 53 51 47 43 44 43 45 40 41 40
76 76 87 90 91 95 97 96 95 91 95 98 99 101 105 106 101 101 102 97 95 98 88 78 75 71 69 71 70 69 67 63 62 62 61 59 57 55 50 48 44 40 42 42 43 43 38 39 35
70 70 77 82 84 89 89 89 85 88 88 89 95 99 92 87 93 102 100 94 93 89 83 82 80 80 76 74 72 68 62 59 59 58 57 55 52 48 45 41 39 41 42 42 43 41 38 32 29
57 64 66 69 69 71 71 70 78 80 79 80 83 90 82 78 79 88 96 93 87 84 77 76 72 68 69 68 64 60 58 56 56 55 51 47 45 42 39 39 40 41 41 43 40 38 29 28 21
46 51 53 54 58 60 59 61 65 66 66 72 74 80 65 67 74 75 74 85 88 82 74 68 65 62 57 54 55 55 53 54 52 47 41 40 41 38 38 39 39 40 41 38 36 28 24 15 12

GFSSGP_250_spd_039.txt.gz
Wind_Speed
64 61 56 53 51 51 54 53 50 50 48 44 41 40 40 35 42 40 46 44 39 40 39 36 40 39 42 40 38 35 35 33 31 34 36 44 46 43 45 49 53 54 53 58 55 52 53 58 60
67 63 59 56 55 56 60 60 57 55 54 47 44 46 45 42 42 43 48 48 42 42 42 44 42 44 39 36 37 38 36 32 33 35 40 48 43 44 47 51 57 52 58 58 55 54 56 61 59
69 67 62 59 58 61 63 64 59 58 53 48 51 52 48 47 42 46 51 49 46 44 42 40 42 39 36 34 35 37 35 33 34 40 43 50 45 47 49 55 59 60 60 59 54 59 60 64 73
74 71 67 64 61 61 67 63 63 62 58 54 60 60 50 46 43 52 55 52 51 47 44 43 41 36 34 36 40 35 32 36 42 47 50 44 49 50 51 58 61 62 61 59 58 61 59 74 79
77 74 70 65 65 68 78 72 68 63 62 65 68 69 54 49 48 53 50 55 56 55 53 50 46 47 43 39 38 37 35 40 44 45 43 54 54 51 51 63 66 63 63 61 57 58 72 81 78
83 79 77 76 72 72 73 74 72 71 64 63 62 75 66 57 48 55 55 55 56 57 57 52 48 44 39 37 41 42 42 45 51 55 57 54 52 47 58 68 70 67 64 58 61 71 82 81 80
93 83 82 80 80 81 79 79 80 75 69 67 72 63 70 66 50 56 62 58 58 60 59 60 58 55 45 44 43 46 56 58 62 60 59 49 49 56 64 66 67 64 59 58 64 78 83 80 80
94 89 81 80 81 82 86 88 80 81 77 73 73 65 69 57 59 59 60 62 64 62 60 62 63 62 62 62 61 62 61 60 56 56 61 61 63 67 66 67 61 58 57 62 74 81 84 81 82
102 91 88 87 79 81 86 88 89 84 78 77 73 72 67 59 60 62 61 61 62 63 62 61 61 60 67 67 64 62 62 63 63 64 64 64 64 65 65 58 63 61 61 70 81 89 84 83 82
101 98 92 96 96 85 84 87 89 86 79 74 83 75 73 68 66 62 61 62 67 70 71 69 66 64 63 64 63 64 67 65 64 63 61 63 64 62 59 63 63 61 65 74 87 91 82 83 79
105 98 100 98 100 101 104 97 93 87 84 78 74 78 76 75 69 64 67 67 71 72 73 75 74 63 65 67 67 63 66 66 62 63 66 60 57 57 58 57 58 64 70 85 87 85 81 78 77
107 104 104 104 105 108 104 105 101 99 89 87 91 88 85 78 78 78 75 70 64 71 77 54 56 69 70 71 69 65 68 68 64 64 62 57 52 51 57 59 63 72 80 86 85 81 80 78 74
113 103 104 106 106 109 111 107 107 102 96 89 89 94 91 84 82 84 85 82 76 67 64 75 75 72 74 69 72 67 68 69 65 60 58 60 57 63 62 63 69 80 84 88 84 81 79 73 76
112 115 113 102 109 108 108 107 110 105 108 103 103 102 96 87 84 87 86 86 87 87 88 83 81 78 76 68 69 66 63 65 60 56 57 58 65 74 76 68 79 81 85 88 85 79 74 74 78
113 112 113 117 113 106 112 111 110 101 104 102 104 105 104 100 93 92 82 84 86 89 88 86 80 78 69 64 67 67 75 67 62 60 58 67 76 76 70 72 80 80 83 84 80 74 72 73 77
109 113 110 110 116 119 125 117 105 99 103 105 105 109 108 106 102 98 93 90 90 91 87 86 81 78 76 78 77 78 82 77 74 74 78 78 74 69 70 78 83 85 82 77 68 68 72 75 76
108 107 111 113 116 120 125 124 116 116 112 96 97 102 109 109 107 102 100 95 91 86 84 81 81 78 80 83 81 84 84 81 75 74 76 76 69 76 80 84 85 84 77 69 64 71 74 75 70
109 108 110 106 115 123 126 124 114 117 119 118 107 90 94 108 107 100 97 94 92 91 90 91 91 87 87 92 86 82 81 73 69 71 75 74 73 79 81 81 79 74 72 67 69 72 76 72 64
108 107 108 109 116 121 119 117 107 112 115 113 115 118 111 105 104 106 105 102 99 94 92 93 90 86 85 88 88 83 71 66 69 71 73 75 74 76 76 73 73 71 67 68 71 75 70 66 62
109 107 108 110 116 119 118 118 111 111 112 114 109 107 103 102 103 101 101 107 107 101 97 87 77 73 71 72 76 69 65 67 70 71 72 73 77 72 71 69 69 68 67 71 73 72 66 61 58
103 109 112 113 119 116 118 119 113 111 111 111 111 109 110 104 103 99 96 95 93 91 86 70 64 59 67 72 73 73 73 72 72 74 72 73 72 66 67 67 68 70 72 71 71 66 60 58 54
99 102 107 115 119 115 124 115 115 108 112 114 111 112 109 111 107 106 104 98 93 93 90 83 80 74 76 78 78 78 78 75 73 71 67 69 69 67 67 64 69 70 69 68 65 60 57 51 51
99 103 104 103 107 112 116 116 110 115 113 111 112 113 113 112 113 111 109 106 101 98 94 87 81 78 82 80 79 76 74 71 72 69 68 70 65 63 63 65 67 65 67 62 60 56 50 48 48
101 106 105 107 107 105 99 110 107 112 112 113 111 111 113 117 117 117 114 112 103 100 94 92 88 81 79 80 79 77 75 73 69 67 67 68 64 62 65 67 65 65 61 59 53 50 47 49 45
95 98 100 107 108 100 106 113 93 98 103 112 113 115 116 113 112 112 110 109 102 97 90 89 88 85 82 80 79 75 70 70 68 68 71 68 64 66 67 65 64 62 59 53 45 46 47 46 42
90 93 94 99 99 97 105 108 94 95 99 98 102 109 115 115 109 106 102 100 98 98 96 96 91 86 82 77 74 71 70 69 69 69 77 65 67 69 67 64 63 61 53 47 45 45 44 43 38
73 82 86 91 92 93 97 97 90 94 100 98 98 99 105 108 107 107 104 98 98 97 92 92 85 84 80 79 78 77 75 73 74 72 70 70 71 69 66 62 60 55 47 44 43 43 43 40 45
60 65 70 75 77 81 89 87 82 83 86 91 92 97 96 93 92 98 98 99 97 98 90 87 83 81 75 75 75 74 69 66 71 70 72 74 67 65 62 59 53 46 44 43 42 41 44 44 40
51 54 59 64 64 69 73 72 73 76 74 78 79 85 91 91 81 72 71 86 98 99 85 84 81 74 74 74 74 74 70 69 69 68 67 64 62 61 58 52 48 45 44 42 41 43 44 38 31
42 42 49 49 54 57 56 61 63 66 68 70 73 75 78 69 64 62 65 72 75 76 81 78 74 69 71 68 67 68 67 64 63 62 60 57 57 58 50 45 46 44 42 43 43 42 35 27 19

GFSSGP_250_spd_042.txt.gz
Wind_Speed
61 59 56 52 50 49 55 59 55 54 49 45 40 34 30 31 30 38 33 36 36 37 35 36 39 41 39 37 37 39 44 38 37 32 35 34 35 41 46 46 45 49 49 53 59 63 61 59 53
67 64 61 58 53 55 60 59 63 57 51 48 43 39 38 37 36 38 38 40 40 40 38 39 37 35 34 36 34 30 31 33 35 36 35 35 40 45 46 50 49 49 52 58 65 65 60 59 53
73 70 66 62 60 64 67 66 64 59 56 53 50 45 44 42 42 44 41 43 40 39 40 41 43 37 38 36 38 34 29 33 34 38 37 37 41 43 50 50 50 52 50 63 64 63 59 56 52
82 78 70 64 65 69 72 69 67 62 60 57 56 52 50 46 50 50 47 46 42 39 44 45 46 44 46 43 41 41 43 34 33 34 36 44 51 51 53 50 51 53 61 65 64 60 60 55 58
82 77 73 70 69 75 77 73 72 67 63 62 61 59 52 52 54 57 53 50 46 45 42 48 49 46 46 43 39 38 38 33 37 36 47 51 51 49 43 51 55 62 66 64 62 63 64 64 63
86 79 74 76 73 74 77 78 73 70 64 63 60 59 53 56 60 62 61 56 53 49 46 49 53 51 48 51 49 46 43 39 48 49 54 48 49 51 55 57 58 59 63 64 64 65 66 66 70
92 86 75 73 71 78 81 85 80 73 70 70 66 65 63 58 61 64 65 58 62 57 55 55 55 55 53 52 50 50 50 51 53 55 56 55 57 55 59 55 60 62 64 64 66 65 65 68 73
97 91 83 77 75 77 87 83 82 81 74 75 67 65 69 66 67 64 63 60 54 60 64 60 58 54 52 55 56 53 52 53 51 54 57 57 59 62 58 59 63 63 62 62 61 63 67 70 85
98 91 87 84 86 91 94 91 92 83 82 84 75 68 70 70 69 67 66 65 61 55 55 60 59 61 61 61 61 57 59 60 64 58 61 61 63 63 62 65 61 60 58 59 62 69 67 77 89
102 92 89 91 91 83 88 88 86 80 85 83 81 82 80 75 71 73 69 66 65 65 66 62 61 60 64 65 66 65 64 65 61 62 62 63 64 66 66 59 58 58 60 66 70 70 74 85 86
104 98 93 94 97 98 87 79 91 86 88 90 89 83 79 80 76 71 70 68 68 68 65 63 64 59 59 68 68 69 68 63 64 64 64 65 65 65 60 64 57 57 63 72 71 75 83 83 86
110 105 105 99 100 104 100 96 85 92 83 85 90 91 88 82 82 78 70 69 73 65 63 65 65 59 57 66 75 56 52 62 67 68 63 67 64 65 67 63 61 62 68 79 75 80 85 88 86
108 109 106 108 108 107 110 103 97 97 95 90 83 80 78 76 79 76 76 74 76 64 65 64 63 56 59 69 57 48 67 66 65 62 65 69 69 70 69 68 71 76 80 80 79 83 86 87 83
115 117 111 109 109 111 109 108 111 94 92 103 102 96 90 81 75 73 64 62 69 65 64 67 60 50 62 55 52 59 73 66 66 64 74 70 72 75 77 76 75 79 81 84 83 86 86 85 80
108 110 112 116 109 114 120 115 110 100 100 97 98 102 103 104 98 91 89 86 79 76 77 76 74 66 68 77 81 81 78 75 72 69 69 74 78 81 85 76 75 77 80 82 83 83 81 79 78
115 111 111 113 121 120 118 113 108 111 114 111 104 98 106 109 106 102 98 94 87 87 77 77 83 80 74 75 73 76 77 76 70 71 74 77 82 85 81 77 74 74 76 80 82 82 79 78 78
111 109 113 120 123 125 133 109 106 113 117 118 116 112 113 114 114 107 103 99 97 94 91 92 86 84 82 81 76 70 69 69 70 75 77 82 83 81 81 73 73 73 75 78 78 76 77 80 78
109 110 111 116 120 124 124 121 119 114 115 114 115 114 112 113 113 110 107 104 102 99 96 93 90 87 82 84 86 82 82 80 79 75 82 86 86 78 68 70 74 76 75 74 75 75 77 78 77
106 108 110 115 116 117 119 119 116 123 125 117 108 108 105 99 97 103 110 106 105 103 99 95 94 92 90 88 86 81 81 81 78 81 79 77 74 67 67 73 76 74 74 74 76 74 76 74 71
106 109 111 113 115 117 119 113 116 119 121 122 123 123 118 113 113 111 104 99 100 103 103 100 100 93 87 86 82 82 86 82 74 75 75 71 64 67 74 73 72 72 72 73 73 73 74 70 67
104 111 111 113 114 115 120 114 111 113 114 118 121 121 122 124 121 116 121 119 110 92 87 81 77 81 81 84 83 81 85 73 66 65 62 61 68 71 70 68 70 70 69 70 69 71 69 66 64
92 100 108 115 114 114 118 113 113 114 113 113 115 116 117 118 119 118 112 112 113 110 108 105 94 82 79 78 73 70 65 62 60 60 61 70 74 72 70 73 73 71 68 68 68 68 65 63 58
98 98 99 103 108 117 115 117 107 114 113 115 116 118 117 116 115 114 112 112 113 111 110 105 93 88 82 74 71 74 69 71 75 74 78 81 76 73 76 71 72 73 67 66 67 67 64 60 51
103 103 102 101 100 105 102 118 107 112 114 118 121 120 120 120 117 112 108 109 109 105 102 99 92 87 80 80 76 77 78 78 76 74 72 73 76 74 68 69 74 75 68 67 71 66 64 51 47
97 98 101 105 107 102 107 108 92 105 113 118 116 116 117 118 116 113 109 108 106 104 98 94 92 89 89 86 85 84 82 78 74 75 77 75 73 69 69 73 76 70 68 70 70 67 58 50 44
90 91 91 94 101 103 110 100 94 101 104 106 112 117 117 115 112 110 109 106 102 102 102 96 91 91 89 89 90 89 85 77 71 70 74 75 71 74 73 76 71 66 72 70 68 63 53 48 43
78 84 83 84 90 95 97 90 96 97 103 103 103 102 103 105 111 109 106 104 103 98 94 94 92 90 91 88 90 88 86 78 76 75 76 74 74 74 72 67 64 67 68 67 64 54 52 48 44
60 69 70 74 78 86 88 86 85 87 95 97 98 98 96 97 93 90 91 95 97 95 96 94 89 86 87 90 87 83 76 73 74 74 73 72 71 70 64 63 65 66 64 63 56 52 50 46 46
55 58 59 58 61 67 69 71 76 83 84 86 86 89 90 94 92 86 77 76 79 84 90 93 93 86 81 80 79 75 72 71 70 68 69 67 65 64 64 63 64 64 61 55 52 51 47 47 48
46 49 48 50 53 52 53 55 63 69 69 69 72 75 79 83 84 80 71 68 67 68 79 80 78 80 79 79 77 74 72 69 65 63 60 60 59 60 61 61 59 58 55 51 49 47 47 47 42

GFSSGP_250_spd_045.txt.gz
Wind_Speed
64 60 60 57 52 51 56 59 52 52 50 47 42 36 31 28 31 35 35 32 29 28 28 27 29 33 37 39 33 32 33 29 30 29 32 31 35 38 33 42 47 46 47 48 48 54 59 61 62
73 69 63 61 58 60 65 65 58 56 52 49 44 41 38 36 35 36 37 35 35 35 31 31 32 34 36 40 40 39 37 42 41 39 35 30 34 35 41 44 48 43 46 53 56 57 57 60 63
78 71 68 61 61 68 74 69 62 58 56 53 51 43 41 41 42 42 42 40 39 36 36 34 34 35 36 40 41 41 39 41 36 34 33 32 36 36 42 44 48 47 52 53 55 58 62 62 63
84 79 73 66 67 73 77 73 67 64 61 57 54 50 48 48 49 46 46 47 43 41 40 39 41 39 39 39 42 43 43 38 41 39 31 33 35 42 44 49 48 48 56 54 58 59 62 63 61
83 83 78 72 71 78 81 77 74 71 65 64 58 56 54 52 52 51 50 50 50 48 42 43 46 45 45 44 44 45 48 45 42 41 36 44 45 47 45 50 49 55 56 57 60 59 61 60 58
90 86 79 81 79 84 83 83 80 78 72 70 64 62 58 58 57 57 53 53 53 51 51 53 52 51 50 51 47 50 50 49 45 44 43 47 48 50 53 53 54 56 59 59 58 60 63 61 63
93 88 81 84 83 82 91 84 84 79 78 71 66 64 61 61 62 60 57 54 52 53 55 57 54 55 56 57 55 57 53 48 51 51 48 49 50 56 53 52 54 57 60 59 61 63 62 64 68
100 92 84 81 86 88 97 92 90 82 81 78 71 67 68 67 63 60 57 57 59 56 57 58 57 58 57 54 61 58 58 56 54 55 54 55 59 60 58 57 57 60 60 64 68 66 67 68 75
103 95 89 92 91 93 95 92 91 87 83 82 77 73 69 68 67 67 65 65 62 64 62 61 62 65 62 59 58 57 59 57 55 53 57 61 56 60 60 60 61 62 64 65 68 74 70 77 80
106 99 98 95 94 97 96 92 93 90 91 89 83 78 76 74 70 69 67 67 66 66 63 65 67 66 63 65 62 62 56 57 58 58 61 55 52 62 62 59 62 64 67 70 77 82 81 79 80
108 106 101 101 100 101 94 93 102 93 93 96 85 82 79 78 78 76 76 74 68 67 67 69 72 70 64 64 63 62 59 59 57 59 65 62 55 71 70 67 65 69 69 77 82 83 85 83 81
111 110 109 105 105 100 100 95 93 95 85 92 88 88 86 85 82 80 77 79 77 72 74 72 73 71 68 66 64 59 57 60 65 67 55 56 64 73 68 72 69 67 74 79 85 88 88 82 80
111 110 113 111 110 110 103 101 92 96 96 94 94 96 92 85 85 87 80 79 75 75 76 73 75 73 68 66 65 58 61 67 69 67 66 65 72 72 73 76 71 71 76 82 87 86 80 79 81
110 111 116 118 115 112 111 107 104 79 91 101 97 92 85 82 89 85 78 83 80 83 80 76 80 76 71 67 61 62 63 68 64 63 67 68 70 70 71 66 73 74 79 86 85 75 76 79 81
109 110 111 116 118 118 117 111 99 97 93 96 104 99 92 84 80 81 85 80 78 80 81 77 77 71 67 65 58 56 57 62 61 70 71 62 67 65 68 79 75 78 82 81 76 74 77 77 80
112 114 114 113 118 118 119 103 106 109 108 105 104 108 108 101 93 82 80 82 81 72 65 63 61 61 61 61 56 54 57 57 65 63 62 64 64 77 85 80 79 80 78 77 72 76 77 76 77
113 117 123 123 120 120 120 109 110 110 110 109 107 106 108 108 109 106 101 96 88 82 77 83 84 82 81 75 67 58 61 68 65 66 67 79 83 80 80 81 79 75 73 68 74 77 73 74 76
110 116 116 122 128 124 121 117 120 117 112 108 110 113 110 111 109 107 107 105 104 101 100 97 95 91 87 87 83 77 76 78 79 81 79 83 83 78 81 76 77 72 67 66 71 72 74 72 73
109 112 119 119 120 124 124 122 121 125 124 117 107 99 112 110 109 110 108 109 108 106 100 97 95 93 91 89 87 88 87 86 83 83 84 83 83 78 79 81 76 68 65 70 73 75 73 70 69
110 111 114 117 121 122 121 121 122 127 128 128 124 117 103 101 106 109 112 112 110 108 106 105 103 101 99 98 94 92 88 85 84 83 86 84 79 75 80 67 64 64 69 76 78 77 72 70 67
112 112 113 115 118 121 123 118 120 125 122 123 124 126 125 120 115 109 107 111 114 115 114 110 106 105 101 92 87 88 87 80 82 84 83 79 73 70 70 60 61 66 76 77 74 72 70 75 68
92 110 116 116 117 119 121 117 121 122 127 128 128 127 128 126 124 124 122 115 112 112 111 108 104 100 96 94 93 89 90 91 85 83 72 71 67 64 62 67 69 71 72 74 73 70 71 77 64
90 92 103 115 120 121 119 122 111 119 122 125 125 125 124 126 125 125 126 126 121 117 113 108 101 96 94 93 89 88 84 75 77 74 74 69 63 68 68 72 74 74 76 76 72 72 73 67 66
94 98 99 101 109 118 120 126 107 117 119 123 126 125 125 122 121 120 121 124 123 121 121 121 119 112 107 102 98 94 86 82 79 76 72 70 72 72 73 73 77 70 70 71 70 70 66 63 69
89 97 103 105 102 103 110 123 108 113 119 121 123 124 124 124 122 120 117 117 117 116 114 111 110 106 104 96 89 85 85 85 84 80 76 75 76 77 76 76 77 72 72 70 70 69 65 65 69
85 89 94 94 100 107 108 99 97 103 113 120 123 123 123 122 122 121 119 116 115 113 110 106 101 95 93 89 86 85 87 85 81 83 80 79 79 80 80 81 81 74 73 69 68 64 63 68 66
81 86 88 84 88 92 94 100 104 103 102 106 115 120 123 122 118 118 118 117 113 110 108 106 100 94 93 90 87 85 83 79 77 75 77 81 79 79 81 79 75 71 69 68 65 61 64 65 62
65 70 73 76 76 81 81 87 90 96 105 112 112 109 107 110 114 115 116 114 109 105 103 102 99 96 93 90 86 83 81 80 76 74 75 75 74 72 71 70 69 66 64 62 61 65 66 62 58
56 56 59 61 64 62 65 71 85 88 94 102 105 110 109 104 99 100 101 105 106 104 101 98 95 92 90 88 86 83 78 74 72 70 68 67 66 66 67 67 64 60 58 58 60 60 58 58 52
45 46 45 45 53 53 48 50 73 74 82 89 94 96 97 97 99 99 96 90 85 84 86 85 90 93 92 86 79 76 75 75 71 67 66 64 64 62 62 60 58 57 55 55 55 55 58 51 48

GFSSGP_250_spd_048.txt.gz
Wind_Speed
70 68 63 57 54 52 54 58 58 55 47 43 42 39 35 30 29 32 30 31 31 29 29 29 27 27 29 29 29 29 32 33 35 35 34 29 32 33 31 31 38 40 46 48 50 54 54 57 58
73 72 69 66 55 59 63 64 61 56 51 48 46 43 37 36 35 35 35 33 32 30 29 29 30 32 32 34 33 33 33 33 33 33 31 35 35 27 30 38 41 46 51 53 53 55 56 59 58
78 76 75 68 63 68 72 70 62 59 53 52 47 45 41 43 41 41 40 40 36 35 32 31 32 34 34 36 36 38 36 37 36 36 35 37 34 29 38 38 42 49 52 52 54 55 57 54 58
83 81 76 74 70 76 80 73 69 65 61 54 49 47 45 46 46 46 45 44 42 40 38 37 38 41 40 40 41 41 40 40 36 40 39 39 38 39 43 43 50 54 55 58 54 57 57 59 59
85 80 78 79 75 81 84 78 70 71 66 60 54 52 51 51 51 51 52 51 48 46 45 42 43 46 46 47 47 48 47 49 50 45 44 43 41 46 44 53 53 54 54 54 58 57 60 61 63
87 83 79 79 83 87 86 83 76 75 71 66 59 60 59 55 54 53 55 55 55 52 50 47 44 47 51 50 50 50 47 48 49 51 49 46 47 47 50 49 51 51 55 55 59 61 63 64 66
89 87 81 85 89 89 87 84 80 78 75 72 66 68 64 60 58 58 60 58 56 56 54 49 47 51 50 50 51 53 52 55 51 54 52 48 48 46 47 51 58 59 56 65 64 69 64 65 70
97 94 85 88 98 94 92 86 84 83 83 77 72 72 71 68 65 65 65 63 62 60 57 55 52 51 51 50 53 56 57 56 57 56 51 47 47 48 53 57 64 64 63 68 72 72 70 72 73
105 96 92 96 100 100 97 94 89 90 90 83 78 77 77 74 72 71 70 66 66 63 60 57 54 53 53 56 59 60 61 59 55 56 55 53 54 54 54 61 63 58 66 71 73 74 75 74 77
112 101 103 106 106 103 98 98 97 94 96 89 85 82 78 78 77 75 73 71 69 68 67 63 59 60 59 59 63 65 65 61 61 60 57 55 54 53 58 61 63 61 67 69 68 67 77 77 81
107 108 111 112 110 107 101 100 104 100 102 95 91 88 86 82 80 79 78 76 74 73 69 68 65 62 62 62 61 62 64 63 64 65 64 61 59 57 62 63 61 67 69 62 64 80 81 81 83
103 111 113 113 110 110 106 102 100 96 98 100 95 92 86 86 85 82 84 80 76 76 74 72 70 69 65 61 60 66 67 66 65 66 65 65 63 65 66 64 63 63 64 61 76 84 81 83 81
104 110 111 116 110 112 112 106 104 94 96 99 100 97 95 94 87 85 87 84 83 79 78 75 74 74 68 70 70 66 68 67 69 68 68 67 68 63 61 63 67 60 62 69 82 81 82 88 82
106 107 110 116 117 110 115 114 105 97 98 106 101 100 97 96 88 86 88 90 85 86 80 78 78 77 69 68 69 69 69 68 70 72 68 67 65 63 58 67 63 60 64 78 82 83 87 86 72
110 108 110 114 119 115 113 109 102 105 103 103 101 101 101 97 94 93 89 90 94 87 86 82 81 78 73 74 75 73 74 72 66 62 64 71 66 65 60 64 58 63 78 79 83 87 87 76 66
111 109 110 113 116 123 118 105 114 111 106 102 104 101 103 100 95 90 93 88 87 89 91 90 85 80 74 70 74 71 70 65 56 58 61 64 65 63 65 56 60 66 78 83 85 87 81 67 64
108 105 107 110 114 114 117 111 112 114 114 110 98 99 97 100 104 101 94 96 98 94 91 91 89 80 77 77 71 65 55 52 54 57 59 58 67 70 70 63 68 81 86 85 85 79 72 64 65
104 104 106 108 110 110 111 111 117 116 117 112 113 106 103 98 101 105 104 97 94 94 93 76 77 79 77 75 71 61 55 57 53 54 57 67 70 73 78 68 79 77 80 83 84 73 62 65 70
103 105 106 108 110 110 113 114 116 120 117 118 114 113 101 106 104 99 106 105 105 102 95 86 84 79 73 70 72 67 74 73 77 75 76 80 69 75 84 83 81 79 79 83 78 62 63 71 73
100 107 108 110 112 113 116 115 116 120 119 120 121 120 115 108 101 116 114 104 104 103 102 100 101 101 98 97 93 88 89 89 89 84 82 83 84 86 86 85 85 80 77 81 68 63 68 74 72
80 105 111 112 114 115 117 116 121 122 121 119 122 123 122 118 118 116 112 109 98 106 111 107 104 100 99 101 99 98 96 92 92 93 92 93 93 93 86 81 84 75 85 76 67 66 68 74 66
67 80 106 113 114 116 118 116 119 122 126 129 127 124 124 124 119 115 114 114 109 103 104 108 110 108 108 110 106 101 97 94 95 98 98 89 85 78 75 81 74 76 80 68 70 69 72 76 75
76 76 81 106 116 117 120 120 115 121 126 132 133 132 130 129 130 128 124 120 118 116 109 99 98 97 98 95 92 94 95 89 87 85 85 80 79 80 81 81 75 83 74 70 72 73 76 78 78
77 81 83 85 102 117 122 126 116 122 126 130 135 135 136 136 133 132 131 129 127 126 124 119 109 97 87 87 86 80 80 81 82 84 82 84 86 87 77 74 88 82 73 74 76 78 80 80 72
72 79 85 89 92 98 115 127 118 123 127 126 129 133 134 136 137 136 136 132 130 129 126 124 123 120 116 108 97 90 89 86 87 89 96 97 97 96 94 88 84 76 77 75 76 76 77 72 66
74 77 81 85 94 99 101 103 111 122 125 130 129 131 133 135 134 133 131 127 126 126 124 122 117 112 113 112 112 111 108 105 103 103 102 99 93 87 84 79 75 72 72 75 75 71 69 64 61
77 79 83 81 83 88 93 100 104 106 107 124 129 131 133 134 133 133 131 129 126 125 120 118 113 109 106 101 99 96 95 93 92 95 91 82 79 76 73 71 71 70 70 71 70 64 63 61 58
73 75 79 81 78 78 83 88 98 104 106 107 116 128 136 136 136 131 127 126 124 122 120 116 112 108 104 99 95 91 88 85 84 83 79 75 75 72 70 68 68 67 67 64 58 58 60 57 57
58 59 65 66 65 67 68 73 86 98 98 98 113 119 120 128 131 130 126 122 121 120 118 114 110 105 101 98 95 92 89 87 82 79 77 75 72 69 67 64 62 62 59 55 55 56 56 56 57
51 53 51 51 53 57 58 61 68 77 86 91 96 109 114 113 112 114 119 119 119 117 114 110 106 102 100 96 92 90 87 82 79 76 73 73 69 69 66 63 60 57 53 52 53 55 54 58 57